Location: Unspecified
(22.6800°N, 112.2000°E)
Time: 12:53:35
(UTC+08:00)

Tiros 1 - All Passes

Search period start: 26 July 2021 00:00
Search period end: 05 August 2021 00:00
Orbit: 630 x 663 km, 48.4° (Epoch: 25 July)

Date Brightness Start Highest point End Pass type
(mag) Time Alt. Az. Time Alt. Az. Time Alt. Az.
26 Jul - 02:53:12 10° N 02:55:52 15° NE 02:58:30 10° ENE visible
26 Jul - 04:33:45 10° NW 04:38:21 72° SW 04:42:56 10° SE visible
26 Jul - 18:38:32 10° SSW 18:43:10 52° SE 18:47:47 10° NE daylight
26 Jul - 20:22:01 10° W 20:25:31 20° NW 20:28:59 10° N visible
27 Jul - 03:17:53 10° NNW 03:22:08 35° NE 03:26:21 10° ESE visible
27 Jul - 05:00:27 10° WNW 05:04:07 24° SW 05:07:47 10° S visible
27 Jul - 17:24:19 10° SSE 17:27:12 16° SE 17:30:04 10° E daylight
27 Jul - 19:04:24 10° WSW 19:09:04 54° NW 19:13:43 10° NE daylight
28 Jul - 02:03:12 10° N 02:05:33 14° NE 02:07:54 10° ENE night (unlit)
28 Jul - 03:43:29 10° NW 03:48:06 82° SW 03:52:42 10° SE visible
28 Jul - 17:48:20 10° SSW 17:52:55 46° SE 17:57:28 10° ENE daylight
28 Jul - 19:31:31 10° W 19:35:12 22° NW 19:38:52 10° NNE visible
29 Jul - 02:27:42 10° NNW 02:31:51 32° NE 02:35:58 10° ESE night (unlit)
29 Jul - 04:10:02 10° WNW 04:13:53 26° SW 04:17:45 10° S night (unlit)
29 Jul - 16:34:28 10° SSE 16:36:58 14° SE 16:39:26 10° E daylight
29 Jul - 18:14:04 10° SW 18:18:47 61° NW 18:23:30 10° NE daylight
30 Jul - 01:13:13 10° N 01:15:14 13° NNE 01:17:15 10° ENE night (unlit)
30 Jul - 02:53:13 10° NW 02:57:52 89° NE 03:02:29 10° SE night (unlit)
30 Jul - 16:58:10 10° SSW 17:02:40 41° SE 17:07:08 10° ENE daylight
30 Jul - 18:41:02 10° W 18:44:54 24° NW 18:48:46 10° NNE daylight
31 Jul - 01:37:32 10° NNW 01:41:35 29° NE 01:45:35 10° E night (unlit)
31 Jul - 03:19:38 10° WNW 03:23:40 30° SW 03:27:41 10° S night (unlit)
31 Jul - 15:44:45 10° SSE 15:46:43 12° SE 15:48:42 10° ESE daylight
31 Jul - 17:23:45 10° SW 17:28:31 69° NW 17:33:17 10° NE daylight
31 Jul - 19:10:14 10° NW 19:11:19 11° NNW 19:12:24 10° NNW daylight
01 Aug - 00:23:20 10° NNE 00:24:55 11° NNE 00:26:30 10° NE night (unlit)
01 Aug - 02:02:58 10° NW 02:07:38 80° NE 02:12:14 10° SE night (unlit)
01 Aug - 16:08:01 10° SSW 16:12:24 36° SE 16:16:47 10° ENE daylight
01 Aug - 17:50:35 10° W 17:54:36 26° NW 17:58:37 10° NNE daylight
02 Aug - 00:47:22 10° NNW 00:51:18 26° NE 00:55:11 10° E night (unlit)
02 Aug - 02:29:16 10° WNW 02:33:26 34° SW 02:37:35 10° SSE night (unlit)
02 Aug - 14:55:19 10° SE 14:56:29 11° SE 14:57:39 10° ESE daylight
02 Aug - 16:33:27 10° SW 16:38:14 77° NW 16:43:02 10° NE daylight
02 Aug - 18:19:15 10° NW 18:20:58 12° NNW 18:22:42 10° N daylight
02 Aug - 23:33:37 10° NNE 23:34:36 11° NNE 23:35:34 10° NE visible
03 Aug - 01:12:43 10° NW 01:17:22 71° NE 01:21:58 10° SE night (unlit)
03 Aug - 02:57:49 10° WSW 02:59:06 11° SW 03:00:23 10° SW night (unlit)
03 Aug - 15:17:53 10° SSW 15:22:09 32° SE 15:26:25 10° ENE daylight
03 Aug - 17:00:08 10° W 17:04:18 29° NW 17:08:27 10° NNE daylight
03 Aug - 23:57:12 10° NNW 00:01:00 24° NE 00:04:46 10° E visible
04 Aug - 01:38:54 10° WNW 01:43:12 38° SW 01:47:28 10° SSE night (unlit)
04 Aug - 15:43:10 10° SW 15:47:58 86° NW 15:52:46 10° NE daylight
04 Aug - 17:28:28 10° WNW 17:30:38 13° NNW 17:32:49 10° N daylight
